User: anonymous   Login
Location: Chandrammap?lem
(16.9200°N, 81.0051°E)
Time: 07:20:34
(UTC+00:00)
Language:

SL-24 DEB - Orbit

View from above orbital plane
View from above orbital plane
View from above satellite
View from above satellite

Ground track
Ground track

The orbit data is extracted from the following two-line orbital elements,

1 36510U 10013C   24202.87718007  .00006296  00000-0  10758-2 0  9994
2 36510  92.0280 131.4497 0019854 312.5319  47.4220 14.68786673762019
Epoch (UTC): 20 July 2024 21:03:08
Eccentricity: 0.0019854
inclination: 92.0280°
perigee height: 651 km
apogee height: 679 km
right ascension of ascending node: 131.4497°
argument of perigee: 312.5319°
revolutions per day: 14.68786673
mean anomaly at epoch: 47.4220°
orbit number at epoch: 76201

The dashed part of the orbit path shows where the satellite is in the earth's shadow,  

DLR